Weather in Losevo

Russia / Pskov Oblast     56°34′33″N   30°47′28″E
temp.,
°C
wind,
m/s
gust,
m/s
humid.,
%
clouds,
%
prec.,
mm/h
press.,
hPa
HPBL,
m
17 august, wed
wed1700:00+19se2107277 0.0 1019220
03:00+17ese237874 0.0 101948
06:00+16ese267748 0.0 1018112
09:00+22ese36579 0.0 1017347
12:00+28e363939 0.0 10171218
15:00+29ese34354 0.0 10161820
18:00+28se24465 0.0 1015293
21:00+22ese23655 0.0 101641
18 august, thu
thu1800:00+19sse22755 0.0 101737
03:00+17se227715 0.0 101814
06:00+17ese22775 0.0 101835
09:00+22ese245898 0.0 1018303
12:00+28e24394 0.0 10181003
15:00+29e33335 0.0 10181934
18:00+28e25440 0.0 1018322
21:00+21e37640 0.0 1019127
19 august, fri
fri1900:00+19e27655 0.0 1019129
03:00+17se24735 0.0 102071
06:00+16ese25713 0.0 102198
09:00+22ese38550 0.0 1021391
12:00+27ese45400 0.0 10211433
15:00+28ese45350 0.0 10202148
18:00+25ese594950 0.0 1021957
21:00+22ese39627 0.0 1021305
20 august, sat
sat2000:00+18se311793 0.0 1022375
03:00+15ese39780 0.0 1022272
06:00+17e2107170 0.0 1022417
09:00+20ese475465 0.0 1022692
12:00+23se48438 0.1 1021905
15:00+26se48375 0.1 10191525
18:00+24ese38505 0.0 10191116
21:00+19ese310680 0.0 1019294
21 august, sun
sun2100:00+17ese310721 0.0 1019297
03:00+15ese28801 0.0 1019213
06:00+16se311775 0.0 1019270
09:00+21se49545 0.0 1018480
12:00+26sse58372 0.0 10181243
15:00+28sse58322 0.0 10171797
18:00+27sse584454 0.0 10171539
21:00+20se4145651 0.0 1018550